[[{"header":{"parameterUnit":"m.s-1","parameterCategory":1,"la1":30.2991,"la2":30.254,"lo1":-89.0895,"lo2":-89.0444,"dy":0.0017,"dx":0.0017,"nx":28,"ny":28,"refTime":"2024-09-29T21:00:00:Z","depth":0,"parameterNumber":2,"parameterNumberName":"U-component_of_WINDS"},"data":[0,0,0,0,0,0,0,0,0,0,0,0,0,0,0,0,0,0,0,0,0,0,0,0,0,0,0,0,0,0,0,0,0,0,0,0,0,0,0,0,0,0,0,0,0,0,0,0,0,0,0,0,0,0,0,0,0,0,-0.3533,-0.3532,0,-0.3449,-0.3448,-0.3447,-0.3402,-0.3402,-0.3402,-0.3401,-0.3312,-0.331,-0.3308,0,0,0,0,0,0,0,0,0,0,0,0,0,-0.3652,-0.365,-0.3533,-0.3532,-0.3531,-0.3449,-0.3448,-0.3447,-0.3402,-0.3402,-0.3402,-0.3401,-0.3313,-0.331,-0.3307,0,0,0,0,0,0,0,0,0,0,0,0,0,-0.3587,-0.3649,-0.3533,-0.3499,-0.3495,-0.3449,-0.3448,-0.3446,-0.3402,-0.3402,-0.3401,-0.3401,-0.3314,-0.3311,-0.3307,-0.3289,0,0,-0.3297,-0.3295,0,0,0,0,0,0,0,0,-0.3591,-0.3583,-0.3505,-0.3501,-0.3497,-0.3436,-0.3457,-0.3393,-0.3402,-0.3437,-0.3401,-0.3401,-0.3353,-0.3347,-0.3331,-0.3284,-0.3281,-0.3296,-0.3294,-0.3293,-0.3292,0,0,0,0,0,0,0,-0.3596,-0.3586,-0.35,-0.3504,-0.3499,-0.3486,-0.3477,-0.3445,-0.3397,-0.3434,-0.343,-0.3421,-0.3351,-0.3334,-0.3328,-0.3279,-0.3296,-0.3293,-0.3291,-0.329,-0.3213,-0.3213,0,0,0,0,0,0,-0.3606,-0.359,-0.3502,-0.3497,-0.3545,-0.3484,-0.3474,-0.3455,-0.3397,-0.3388,-0.3421,-0.3419,-0.334,-0.3333,-0.3325,-0.33,-0.3293,-0.329,-0.3288,-0.3213,-0.3213,-0.3213,0,0,0,0,0,0,-0.3609,-0.3599,-0.3506,-0.3543,-0.353,-0.3483,-0.3462,-0.3454,-0.3437,-0.3388,-0.3379,-0.3414,-0.334,-0.333,-0.3298,-0.3296,-0.3288,-0.3285,-0.3213,-0.3213,-0.3213,-0.3249,0,0,0,0,0,0,-0.3612,-0.36,-0.3593,-0.3543,-0.3528,-0.3481,-0.3462,-0.3452,-0.3432,-0.3428,-0.3378,-0.3369,-0.3339,-0.3304,-0.3295,-0.3291,-0.3282,-0.3213,-0.3213,-0.3213,-0.3247,-0.325,-0.3252,0,0,0,0,0,-0.3617,-0.3606,-0.3593,-0.3583,-0.3519,-0.3481,-0.3473,-0.3439,-0.3432,-0.3424,-0.3392,-0.3371,-0.3298,-0.3301,-0.329,-0.3286,-0.3213,-0.3213,-0.3213,-0.3246,-0.3249,-0.3252,0,0,0,0,0,0,-0.3656,-0.3599,-0.3584,-0.3556,-0.3524,-0.3474,-0.3463,-0.3443,-0.3411,-0.3409,-0.3368,-0.3357,-0.3329,-0.3304,-0.3308,-0.3264,-0.3253,-0.3251,-0.3282,-0.3284,-0.3287,-0.3293,-0.3279,0,0,0,0,0,-0.3661,-0.3636,-0.3587,-0.3568,-0.3553,-0.3511,-0.3493,-0.347,-0.3434,-0.342,-0.3386,-0.3351,-0.332,-0.3301,-0.327,-0.3243,-0.3232,-0.3235,-0.3237,-0.3239,-0.3238,-0.3222,-0.3223,-0.3213,-0.3213,-0.3213,0,0,-0.3672,-0.3638,-0.3625,-0.3575,-0.3547,-0.3522,-0.3499,-0.3473,-0.3453,-0.3416,-0.3384,-0.3358,-0.3316,-0.3287,-0.3273,-0.3266,-0.3238,-0.324,-0.3242,-0.3239,-0.3223,-0.3224,-0.3225,-0.3213,-0.3213,-0.3213,0,0,-0.3679,-0.3651,-0.3632,-0.3605,-0.3563,-0.3535,-0.3531,-0.3483,-0.3465,-0.3432,-0.3404,-0.3379,-0.3327,-0.3299,-0.3277,-0.3274,-0.3253,-0.3265,-0.3277,-0.3262,-0.3263,-0.3263,-0.3262,-0.3262,-0.3264,-0.3264,-0.3264,0,-0.3698,-0.3659,-0.3624,-0.36,-0.3579,-0.3544,-0.3524,-0.3499,-0.3449,-0.3435,-0.3428,-0.3362,-0.3331,-0.3295,-0.3295,-0.3279,-0.3272,-0.327,-0.3265,-0.3266,-0.3265,-0.3264,-0.3264,-0.3265,-0.3265,-0.3265,-0.3265,0,-0.3684,-0.3657,-0.3647,-0.3601,-0.3578,-0.3556,-0.3517,-0.3498,-0.3477,-0.345,-0.3417,-0.3379,-0.334,-0.333,-0.3308,-0.3291,-0.3288,-0.3274,-0.3261,-0.3269,-0.3267,-0.3266,-0.3268,-0.3267,-0.3267,-0.3266,0,0,-0.3713,-0.3649,-0.3645,-0.3624,-0.3576,-0.3554,-0.353,-0.3493,-0.3477,-0.3444,-0.3422,-0.3379,-0.3366,-0.3342,-0.3317,-0.3304,-0.3304,-0.3291,-0.329,-0.3295,-0.3282,-0.3293,-0.3293,-0.329,-0.3289,-0.3289,-0.3285,0,-0.3713,-0.367,-0.3638,-0.3606,-0.3581,-0.3548,-0.3527,-0.3495,-0.3468,-0.3442,-0.3413,-0.3383,-0.3368,-0.3353,-0.3339,-0.3307,-0.33,-0.3307,-0.3269,-0.3268,-0.3281,-0.3292,-0.3303,-0.3302,-0.3284,-0.3284,-0.3284,0,-0.3708,-0.3677,-0.3643,-0.3598,-0.3586,-0.3568,-0.3531,-0.3507,-0.3469,-0.3451,-0.3425,-0.3399,-0.3372,-0.3362,-0.3323,-0.3328,-0.331,-0.3292,-0.3291,-0.3286,-0.3277,-0.3288,-0.33,-0.3301,-0.3282,-0.3282,-0.3283,0,-0.3733,-0.3683,-0.3656,-0.3639,-0.3585,-0.3573,-0.355,-0.3513,-0.3492,-0.346,-0.3446,-0.341,-0.3391,-0.3363,-0.3328,-0.3324,-0.3293,-0.328,-0.3277,-0.3278,-0.3272,-0.3273,-0.3282,-0.326,-0.326,-0.326,-0.326,0,-0.3737,-0.3717,-0.3667,-0.365,-0.3628,-0.359,-0.3568,-0.3542,-0.3509,-0.3487,-0.3455,-0.3435,-0.339,-0.3363,-0.3336,-0.3308,-0.3299,-0.3283,-0.3276,-0.3286,-0.3288,-0.3274,-0.3273,-0.326,-0.326,-0.326,-0.326,0,-0.3761,-0.3726,-0.3695,-0.3647,-0.3635,-0.362,-0.3579,-0.3561,-0.3533,-0.3505,-0.3496,-0.3452,-0.3419,-0.3382,-0.3337,-0.3318,-0.3292,-0.3282,-0.3305,-0.3301,-0.33,-0.3301,-0.3301,-0.3299,-0.3279,-0.3279,-0.3279,0,-0.3766,-0.3751,-0.3701,-0.3685,-0.3663,-0.3636,-0.3615,-0.3577,-0.3557,-0.3513,-0.3501,-0.3466,-0.3436,-0.3385,-0.3349,-0.3314,-0.3302,-0.3305,-0.3297,-0.3308,-0.3303,-0.3304,-0.3303,-0.3307,-0.3308,-0.3308,-0.3308,0,-0.3778,-0.3762,-0.3734,-0.37,-0.3677,-0.3648,-0.3617,-0.3605,-0.3561,-0.354,-0.3507,-0.3484,-0.3438,-0.3403,-0.3364,-0.3339,-0.3316,-0.3311,-0.3309,-0.3319,-0.3334,-0.3326,-0.3312,-0.3311,-0.3311,-0.3311,-0.3311,-0.3311,-0.3793,-0.3778,-0.3741,-0.3711,-0.3685,-0.3657,-0.3638,-0.3609,-0.3581,-0.3541,-0.352,-0.3488,-0.345,-0.3395,-0.3371,-0.3344,-0.3336,-0.3332,-0.3331,-0.3331,-0.3334,-0.3338,-0.3336,-0.3336,-0.3336,-0.3336,-0.3336,0,-0.3804,-0.3779,-0.3752,-0.3711,-0.3687,-0.3669,-0.3634,-0.3615,-0.3587,-0.3554,-0.3526,-0.3488,-0.3454,-0.3415,-0.3379,-0.3365,-0.3354,-0.3357,-0.3358,-0.3353,-0.3343,-0.3349,-0.3367,-0.3367,-0.3367,-0.3367,-0.3367,-0.3367,-0.3808,-0.3781,-0.376,-0.372,-0.3695,-0.3663,-0.3645,-0.3619,-0.3593,-0.3552,-0.3525,-0.35,-0.3464,-0.3426,-0.3394,-0.3383,-0.3371,-0.3378,-0.3364,-0.3356,-0.3353,-0.3351,-0.3356,-0.3375,-0.3376,-0.3376,-0.3376,-0.3376]},{"header":{"parameterUnit":"m.s-1","parameterCategory":1,"la1":30.2991,"la2":30.254,"lo1":-89.0895,"lo2":-89.0444,"dy":0.0017,"dx":0.0017,"nx":28,"ny":28,"refTime":"2024-09-29T21:00:00:Z","depth":0,"parameterNumber":3,"parameterNumberName":"V-component_of_WINDS"},"data":[0,0,0,0,0,0,0,0,0,0,0,0,0,0,0,0,0,0,0,0,0,0,0,0,0,0,0,0,0,0,0,0,0,0,0,0,0,0,0,0,0,0,0,0,0,0,0,0,0,0,0,0,0,0,0,0,0,0,-0.8968,-0.8968,0,-0.893,-0.8929,-0.8929,-0.8931,-0.8931,-0.8932,-0.8932,-0.8891,-0.8889,-0.8888,0,0,0,0,0,0,0,0,0,0,0,0,0,-0.9044,-0.9042,-0.8968,-0.8968,-0.8967,-0.893,-0.8929,-0.8929,-0.8931,-0.8931,-0.8932,-0.8933,-0.8891,-0.889,-0.8888,0,0,0,0,0,0,0,0,0,0,0,0,0,-0.9009,-0.9042,-0.8968,-0.8964,-0.8963,-0.893,-0.8929,-0.8929,-0.893,-0.8931,-0.8932,-0.8933,-0.8892,-0.889,-0.8887,-0.8856,0,0,-0.888,-0.8879,0,0,0,0,0,0,0,0,-0.9011,-0.9006,-0.8965,-0.8964,-0.8963,-0.8936,-0.8941,-0.8904,-0.893,-0.8943,-0.8932,-0.8933,-0.8905,-0.8902,-0.8893,-0.8854,-0.8852,-0.888,-0.8878,-0.8877,-0.8876,0,0,0,0,0,0,0,-0.9013,-0.9007,-0.8953,-0.8964,-0.8963,-0.8964,-0.896,-0.8934,-0.892,-0.8942,-0.8942,-0.8937,-0.8905,-0.8895,-0.8892,-0.8851,-0.888,-0.8878,-0.8876,-0.8875,-0.8788,-0.8788,0,0,0,0,0,0,-0.9016,-0.9009,-0.8954,-0.8952,-0.8989,-0.8962,-0.8957,-0.8944,-0.892,-0.8917,-0.8937,-0.8938,-0.8899,-0.8894,-0.889,-0.8854,-0.8877,-0.8875,-0.8874,-0.8789,-0.8788,-0.8787,0,0,0,0,0,0,-0.9018,-0.9012,-0.8956,-0.8981,-0.8974,-0.896,-0.8944,-0.8943,-0.8933,-0.8916,-0.8914,-0.8929,-0.8899,-0.8894,-0.8865,-0.8852,-0.8874,-0.8872,-0.879,-0.8789,-0.8788,-0.878,0,0,0,0,0,0,-0.902,-0.9012,-0.9,-0.898,-0.8972,-0.8931,-0.8944,-0.8941,-0.8929,-0.893,-0.8908,-0.8906,-0.8899,-0.8869,-0.8863,-0.8849,-0.887,-0.8791,-0.879,-0.8788,-0.8781,-0.8778,-0.8776,0,0,0,0,0,-0.9023,-0.8998,-0.8999,-0.8992,-0.8956,-0.893,-0.8926,-0.8919,-0.8928,-0.8915,-0.8905,-0.8906,-0.8855,-0.8866,-0.8859,-0.8845,-0.8792,-0.879,-0.8788,-0.8782,-0.8779,-0.8776,0,0,0,0,0,0,-0.9014,-0.8995,-0.8996,-0.8964,-0.8949,-0.8931,-0.8915,-0.8916,-0.8897,-0.8899,-0.8891,-0.8887,-0.8859,-0.8849,-0.8861,-0.8815,-0.8825,-0.8821,-0.8822,-0.8819,-0.8817,-0.882,-0.8868,0,0,0,0,0,-0.9009,-0.8989,-0.8973,-0.8947,-0.8939,-0.8929,-0.8917,-0.8914,-0.8898,-0.8891,-0.8879,-0.8863,-0.8843,-0.883,-0.8811,-0.878,-0.8776,-0.8767,-0.8764,-0.8762,-0.876,-0.8745,-0.8741,-0.8781,-0.8781,-0.8781,0,0,-0.8996,-0.8984,-0.8972,-0.8945,-0.8933,-0.8914,-0.8923,-0.8901,-0.8887,-0.8887,-0.8861,-0.8851,-0.8833,-0.8804,-0.8791,-0.8795,-0.8748,-0.876,-0.8758,-0.8757,-0.8743,-0.8739,-0.8736,-0.878,-0.878,-0.878,0,0,-0.8965,-0.8953,-0.8931,-0.8919,-0.8902,-0.8896,-0.889,-0.8873,-0.8867,-0.884,-0.8841,-0.8824,-0.879,-0.8778,-0.8768,-0.8736,-0.8737,-0.873,-0.8717,-0.8702,-0.8699,-0.8697,-0.8687,-0.8684,-0.8727,-0.8727,-0.8727,0,-0.8952,-0.8924,-0.8919,-0.8899,-0.8888,-0.8889,-0.8867,-0.8856,-0.8832,-0.8825,-0.8831,-0.879,-0.8778,-0.8747,-0.874,-0.873,-0.8725,-0.8732,-0.87,-0.8697,-0.8695,-0.8686,-0.8682,-0.8726,-0.8726,-0.8726,-0.8727,0,-0.891,-0.889,-0.8875,-0.8855,-0.8842,-0.882,-0.8813,-0.8801,-0.8799,-0.8793,-0.8767,-0.8753,-0.8732,-0.8725,-0.8722,-0.8694,-0.8698,-0.8702,-0.8712,-0.869,-0.8682,-0.8678,-0.8725,-0.8726,-0.8726,-0.8726,0,0,-0.8871,-0.8851,-0.8845,-0.8837,-0.882,-0.8804,-0.8784,-0.8765,-0.8756,-0.874,-0.8724,-0.8697,-0.8702,-0.869,-0.8686,-0.8674,-0.8653,-0.868,-0.8679,-0.8676,-0.8624,-0.8622,-0.8618,-0.8653,-0.8652,-0.8652,-0.8626,0,-0.8839,-0.8804,-0.8801,-0.877,-0.8753,-0.8755,-0.8738,-0.8725,-0.8719,-0.8704,-0.8697,-0.8679,-0.8685,-0.8678,-0.8666,-0.8658,-0.8642,-0.8659,-0.8639,-0.8638,-0.8644,-0.8613,-0.861,-0.8586,-0.8622,-0.8622,-0.8621,0,-0.8797,-0.8783,-0.8751,-0.8739,-0.8732,-0.8716,-0.87,-0.8686,-0.8672,-0.8669,-0.8657,-0.8656,-0.8637,-0.8647,-0.8621,-0.8633,-0.8625,-0.8619,-0.8618,-0.8617,-0.8629,-0.8612,-0.8578,-0.8575,-0.8616,-0.8616,-0.8616,0,-0.8775,-0.8747,-0.8725,-0.8718,-0.8703,-0.8692,-0.8685,-0.8673,-0.8663,-0.8649,-0.8643,-0.8626,-0.8617,-0.8605,-0.86,-0.8608,-0.8575,-0.8584,-0.8572,-0.8572,-0.8565,-0.8566,-0.8531,-0.8558,-0.8558,-0.8558,-0.8558,0,-0.8741,-0.8721,-0.8716,-0.8702,-0.8681,-0.8678,-0.8657,-0.865,-0.864,-0.8626,-0.8626,-0.8613,-0.8607,-0.8593,-0.8588,-0.8569,-0.8564,-0.8561,-0.8561,-0.8562,-0.8562,-0.8557,-0.8559,-0.8557,-0.8557,-0.8558,-0.8558,0,-0.8712,-0.8707,-0.8683,-0.8672,-0.8669,-0.8654,-0.8644,-0.8631,-0.8626,-0.8609,-0.8604,-0.8596,-0.858,-0.8574,-0.8553,-0.8551,-0.8528,-0.8528,-0.8533,-0.8533,-0.8522,-0.8524,-0.8483,-0.8478,-0.8507,-0.8507,-0.8507,0,-0.8691,-0.8677,-0.8664,-0.8656,-0.8649,-0.8634,-0.8625,-0.8621,-0.8612,-0.8597,-0.8587,-0.8571,-0.8558,-0.8533,-0.8525,-0.851,-0.851,-0.8497,-0.8508,-0.8511,-0.8512,-0.8514,-0.8513,-0.8495,-0.8495,-0.8495,-0.8495,0,-0.8655,-0.8654,-0.8641,-0.8628,-0.8617,-0.8606,-0.8596,-0.8588,-0.8584,-0.8573,-0.8557,-0.8548,-0.8528,-0.8513,-0.8499,-0.8491,-0.8493,-0.8492,-0.8488,-0.849,-0.8494,-0.8493,-0.8529,-0.8492,-0.8493,-0.8493,-0.8493,-0.8493,-0.8631,-0.8619,-0.861,-0.8596,-0.8588,-0.8579,-0.8568,-0.8562,-0.8549,-0.8534,-0.8533,-0.8517,-0.8506,-0.8487,-0.8479,-0.8467,-0.847,-0.8465,-0.8464,-0.8463,-0.8463,-0.8496,-0.8464,-0.8464,-0.8464,-0.8464,-0.8464,0,-0.8597,-0.8592,-0.8579,-0.8565,-0.8555,-0.8558,-0.8547,-0.8538,-0.8524,-0.8515,-0.8503,-0.8486,-0.8473,-0.8465,-0.8451,-0.8443,-0.8443,-0.8439,-0.844,-0.8439,-0.846,-0.8465,-0.8439,-0.8439,-0.8439,-0.8439,-0.8439,-0.8439,-0.8578,-0.856,-0.8558,-0.8536,-0.8531,-0.8516,-0.851,-0.8502,-0.8495,-0.8476,-0.8465,-0.8461,-0.8452,-0.8439,-0.8426,-0.8425,-0.842,-0.8416,-0.8415,-0.8435,-0.8437,-0.844,-0.8444,-0.8415,-0.8415,-0.8395,-0.8395,-0.8395]}]]